Kenosha, WI

5:04 PM CST on November 20, 2017 (GMT -0600)
Kenosha Regional

Weather History for KENW - April, 2014

Change the Weather History Date:

Tuesday, April 1, 2014

  Actual Average Record
Temperature  
Mean Temperature 42 °F -  
Max Temperature 55 °F 47 °F 69 °F (1955)
Min Temperature 30 °F 32 °F 20 °F (1964)
Degree Days  
Heating Degree Days 22    
Moisture  
Dew Point 26 °F    
Average Humidity 61    
Maximum Humidity 70    
Minimum Humidity 49    
Precipitation  
Precipitation 0.00 in - - ()
Sea Level Pressure  
Sea Level Pressure 29.84 in    
Wind  
Wind Speed 20 mph (WSW)    
Max Wind Speed 29 mph    
Max Gust Speed 39 mph    
Visibility 10 miles    
Events      
Averages and records for this station are not official NWS values.
T = Trace of Precipitation, MM = Missing Value Source: NWS Daily Summary

Daily Weather History Graph

Daily Weather History Graph

Search for Another Location

Airport or City:

Trip Planner

Search our weather history database for the weather conditions in past years. The results will help you decide how hot, cold, wet, or windy it might be!

Date:

Astronomy

Apr. 01, 2014 Rise Set
Actual Time 6:34 AM CDT 7:17 PM CDT
Civil Twilight 6:05 AM CDT 7:46 PM CDT
Nautical Twilight 5:31 AM CDT 8:20 PM CDT
Astronomical Twilight 4:56 AM CDT 8:55 PM CDT
Moon 7:34 AM CDT (4/1) 9:43 PM CDT (4/1)
Length of Visible Light 13h 40m
Length of Day
12h 43m
Waxing Crescent, 5% of the Moon is Illuminated
Apr 1
Waxing Crescent
Apr 7
First Quarter
Apr 15
Full
Apr 22
Last Quarter
Apr 29
New

Hourly Weather History & Observations

Time (CDT) Temp. Windchill Dew Point Humidity Pressure Visibility Wind Dir Wind Speed Gust Speed Precip Events Conditions
12:53 AM 55.9 °F - 37.0 °F 49% 29.65 in 10.0 mi South 19.6 mph 26.5 mph N/A   Clear
1:53 AM 53.1 °F - 37.9 °F 57% 29.64 in 10.0 mi SSW 12.7 mph - N/A   Clear
2:53 AM 53.1 °F - 41.0 °F 64% 29.65 in 10.0 mi SW 15.0 mph 23.0 mph N/A   Mostly Cloudy
3:53 AM 46.9 °F - 34.0 °F 61% 29.66 in 10.0 mi WSW 28.8 mph 35.7 mph N/A   Mostly Cloudy
4:53 AM 39.9 °F 28.6 °F 27.0 °F 60% 29.68 in 10.0 mi WSW 28.8 mph 36.8 mph N/A   Clear
5:53 AM 34.0 °F 22.7 °F 24.1 °F 67% 29.70 in 10.0 mi WSW 19.6 mph 31.1 mph N/A   Clear
6:45 AM 33.1 °F 20.9 °F 24.1 °F 70% 29.71 in 10.0 mi WSW 21.9 mph 31.1 mph N/A   Mostly Cloudy
6:53 AM 33.1 °F 20.3 °F 24.1 °F 70% 29.73 in 10.0 mi WSW 24.2 mph 32.2 mph N/A   Mostly Cloudy
7:53 AM 32.0 °F 18.4 °F 21.9 °F 66% 29.75 in 10.0 mi WSW 26.5 mph 32.2 mph N/A   Overcast
8:53 AM 30.9 °F 18.7 °F 19.9 °F 64% 29.77 in 10.0 mi West 19.6 mph 35.7 mph N/A   Overcast
9:48 AM 33.8 °F 22.8 °F 21.2 °F 60% 29.77 in 10.0 mi WSW 18.4 mph 31.1 mph N/A   Overcast
9:53 AM 32.0 °F 19.2 °F 21.0 °F 64% 29.79 in 10.0 mi West 23.0 mph 32.2 mph N/A   Overcast
10:53 AM 30.9 °F 16.7 °F 19.9 °F 64% 29.81 in 10.0 mi WSW 27.6 mph 35.7 mph N/A   Overcast
11:53 AM 32.0 °F 17.9 °F 21.0 °F 64% 29.84 in 10.0 mi WSW 28.8 mph 36.8 mph N/A   Overcast
12:53 PM 33.1 °F 20.3 °F 21.0 °F 61% 29.86 in 10.0 mi WSW 24.2 mph 32.2 mph N/A   Overcast
1:53 PM 36.0 °F 23.5 °F 23.0 °F 59% 29.88 in 10.0 mi West 27.6 mph 39.1 mph N/A   Mostly Cloudy
2:38 PM 36.0 °F 23.5 °F 23.0 °F 59% 29.87 in 10.0 mi West 27.6 mph 38.0 mph N/A   Mostly Cloudy
2:53 PM 39.0 °F 28.0 °F 25.0 °F 57% 29.88 in 10.0 mi West 25.3 mph 34.5 mph N/A   Mostly Cloudy
3:53 PM 42.1 °F 32.6 °F 25.0 °F 51% 29.89 in 10.0 mi WSW 23.0 mph 38.0 mph N/A   Clear
4:53 PM 42.1 °F 33.3 °F 25.0 °F 51% 29.91 in 10.0 mi West 19.6 mph 27.6 mph N/A   Clear
5:53 PM 44.1 °F 35.7 °F 26.1 °F 49% 29.95 in 10.0 mi West 20.7 mph - N/A   Clear
6:53 PM 42.1 °F 34.5 °F 27.0 °F 55% 29.98 in 10.0 mi West 15.0 mph 23.0 mph N/A   Clear
7:53 PM 41.0 °F 35.2 °F 27.0 °F 57% 30.01 in 10.0 mi West 9.2 mph - N/A   Clear
8:53 PM 39.9 °F 33.9 °F 27.0 °F 60% 30.04 in 10.0 mi West 9.2 mph - N/A   Clear
9:53 PM 37.9 °F 34.4 °F 27.0 °F 65% 30.05 in 10.0 mi West 4.6 mph - N/A   Clear
10:53 PM 37.9 °F 32.1 °F 28.0 °F 68% 30.09 in 10.0 mi West 8.1 mph - N/A   Clear
11:53 PM 37.9 °F 32.7 °F 28.0 °F 68% 30.09 in 10.0 mi West 6.9 mph - N/A   Clear